When you browse on this site, cookies collect data to enhance your experience and personalize the content and advertising you see.
Visit our Privacy Policy to learn more. By continuing to use the site, you agree to this use of cookies and data.
  • In Romania
  • List of Countries
  • For 7 days
  • Water Temperature
  • Satellite Maps
  • Weather Map
  • Weather Widgets
  • user-avatar
    Login

    Hourly Weather Achstetten

    Today, 26 April, Friday

    Time Temperature Precipitation Wind Pressure Humidity
    00:00 +9°C° 0 mm 3 mps 711 mmHg 85%
    01:00 +8°C° 0 mm 3 mps 712 mmHg 94%
    02:00 +7°C° 0 mm 3 mps 711 mmHg 95%
    03:00 +7°C° 0 mm 2 mps 711 mmHg 95%
    04:00 +7°C° 0 mm 1 mps 711 mmHg 96%
    05:00 +7°C° 0 mm 2 mps 712 mmHg 94%
    06:00 +7°C° 0 mm 3 mps 712 mmHg 91%
    07:00 +7°C° 0 mm 4 mps 712 mmHg 89%
    08:00 +7°C° 0.2 mm 4 mps 713 mmHg 90%
    09:00 +7°C° 0.2 mm 4 mps 713 mmHg 90%
    10:00 +7°C° 0.2 mm 5 mps 713 mmHg 90%
    11:00 +6°C° 1.4 mm 5 mps 714 mmHg 91%
    12:00 +6°C° 1.4 mm 5 mps 715 mmHg 92%
    13:00 +6°C° 1.4 mm 5 mps 715 mmHg 92%
    14:00 +6°C° 1.1 mm 5 mps 716 mmHg 91%
    15:00 +7°C° 1.1 mm 4 mps 716 mmHg 90%
    16:00 +7°C° 1.1 mm 4 mps 717 mmHg 88%
    17:00 +7°C° 0.2 mm 4 mps 717 mmHg 90%
    18:00 +6°C° 0.2 mm 4 mps 717 mmHg 91%
    19:00 +6°C° 0.2 mm 4 mps 717 mmHg 92%
    20:00 +6°C° 0 mm 4 mps 718 mmHg 93%
    21:00 +5°C° 0 mm 3 mps 718 mmHg 93%
    22:00 +4°C° 0 mm 3 mps 718 mmHg 94%
    23:00 +4°C° 0 mm 3 mps 718 mmHg 93%

    Tomorrow, 27 April, Saturday

    Time Temperature Precipitation Wind Pressure Humidity
    00:00 +4°C° 0 mm 3 mps 718 mmHg 92%
    01:00 +4°C° 0 mm 3 mps 718 mmHg 91%
    02:00 +4°C° 0 mm 4 mps 718 mmHg 91%
    03:00 +4°C° 0 mm 4 mps 718 mmHg 91%
    04:00 +4°C° 0 mm 4 mps 718 mmHg 91%
    05:00 +4°C° 0 mm 4 mps 718 mmHg 90%
    06:00 +5°C° 0 mm 4 mps 718 mmHg 88%
    07:00 +5°C° 0 mm 5 mps 719 mmHg 87%
    08:00 +7°C° 0 mm 5 mps 719 mmHg 81%
    09:00 +9°C° 0 mm 6 mps 719 mmHg 76%
    10:00 +11°C° 0 mm 6 mps 719 mmHg 71%
    11:00 +11°C° 0.4 mm 6 mps 719 mmHg 71%
    12:00 +11°C° 0.4 mm 7 mps 718 mmHg 71%
    13:00 +11°C° 0.4 mm 7 mps 718 mmHg 71%
    14:00 +10°C° 0.4 mm 7 mps 718 mmHg 75%
    15:00 +10°C° 0.4 mm 6 mps 718 mmHg 80%
    16:00 +9°C° 0.4 mm 6 mps 717 mmHg 84%
    17:00 +8°C° 0.3 mm 5 mps 718 mmHg 85%
    18:00 +7°C° 0.3 mm 5 mps 718 mmHg 86%
    19:00 +7°C° 0.3 mm 5 mps 718 mmHg 87%
    20:00 +6°C° 0.3 mm 5 mps 719 mmHg 88%
    21:00 +5°C° 0.3 mm 4 mps 720 mmHg 89%
    22:00 +4°C° 0.3 mm 4 mps 720 mmHg 91%
    23:00 +4°C° 0.2 mm 3 mps 720 mmHg 91%

    Day after tomorrow, 28 April, Sunday

    Time Temperature Precipitation Wind Pressure Humidity
    00:00 +3°C° 0.2 mm 3 mps 720 mmHg 91%
    01:00 +3°C° 0.2 mm 3 mps 720 mmHg 91%
    02:00 +3°C° 0.3 mm 3 mps 720 mmHg 91%
    03:00 +3°C° 0.3 mm 3 mps 720 mmHg 91%
    04:00 +2°C° 0.3 mm 3 mps 720 mmHg 91%
    05:00 +3°C° 0.5 mm 3 mps 720 mmHg 91%
    06:00 +3°C° 0.5 mm 3 mps 720 mmHg 91%
    07:00 +3°C° 0.5 mm 3 mps 720 mmHg 91%
    08:00 +4°C° 1 mm 3 mps 720 mmHg 89%
    09:00 +4°C° 1 mm 3 mps 720 mmHg 88%
    10:00 +5°C° 1 mm 3 mps 719 mmHg 86%
    11:00 +5°C° 0.5 mm 3 mps 719 mmHg 83%
    12:00 +6°C° 0.5 mm 4 mps 719 mmHg 80%
    13:00 +7°C° 0.5 mm 4 mps 719 mmHg 76%
    14:00 +7°C° 0.5 mm 4 mps 719 mmHg 76%
    15:00 +7°C° 0.5 mm 4 mps 718 mmHg 75%
    16:00 +7°C° 0.5 mm 4 mps 718 mmHg 75%
    17:00 +8°C° 0.4 mm 3 mps 718 mmHg 79%
    18:00 +7°C° 0.4 mm 2 mps 718 mmHg 83%
    19:00 +6°C° 0.4 mm 2 mps 718 mmHg 87%
    20:00 +5°C° 0.2 mm 2 mps 719 mmHg 89%
    21:00 +5°C° 0.2 mm 2 mps 719 mmHg 91%
    22:00 +4°C° 0.2 mm 2 mps 719 mmHg 93%
    23:00 +5°C° 0.1 mm 1 mps 719 mmHg 93%

    29 April, Monday

    Time Temperature Precipitation Wind Pressure Humidity
    00:00 +4°C° 0.1 mm 1 mps 719 mmHg 94%
    01:00 +4°C° 0.1 mm 1 mps 719 mmHg 94%
    02:00 +3°C° 0.1 mm 1 mps 719 mmHg 95%
    03:00 +3°C° 0.1 mm 1 mps 719 mmHg 95%
    04:00 +3°C° 0.1 mm 1 mps 719 mmHg 95%
    05:00 +4°C° 0.1 mm 1 mps 719 mmHg 93%
    06:00 +5°C° 0.1 mm 1 mps 719 mmHg 92%
    07:00 +5°C° 0.1 mm 1 mps 719 mmHg 91%
    08:00 +6°C° 0.1 mm 1 mps 719 mmHg 88%
    09:00 +7°C° 0.1 mm 1 mps 719 mmHg 85%
    10:00 +8°C° 0.1 mm 1 mps 719 mmHg 82%
    11:00 +9°C° 0.2 mm 1 mps 719 mmHg 77%
    12:00 +11°C° 0.2 mm 1 mps 719 mmHg 72%
    13:00 +12°C° 0.2 mm 1 mps 719 mmHg 66%
    14:00 +12°C° 0.2 mm 1 mps 719 mmHg 66%
    15:00 +12°C° 0.2 mm 1 mps 719 mmHg 65%
    16:00 +12°C° 0.2 mm 1 mps 718 mmHg 64%
    17:00 +11°C° 0.4 mm 1 mps 718 mmHg 71%
    18:00 +10°C° 0.4 mm 1 mps 718 mmHg 78%
    19:00 +9°C° 0.4 mm 1 mps 718 mmHg 85%
    20:00 +8°C° 0 mm 1 mps 719 mmHg 86%
    21:00 +7°C° 0 mm 1 mps 719 mmHg 87%
    22:00 +6°C° 0 mm 1 mps 719 mmHg 87%
    23:00 +6°C° 0 mm 1 mps 719 mmHg 88%

    30 April, Tuesday

    Time Temperature Precipitation Wind Pressure Humidity
    00:00 +5°C° 0 mm 1 mps 719 mmHg 88%
    01:00 +5°C° 0 mm 1 mps 719 mmHg 89%
    02:00 +5°C° 0 mm 1 mps 719 mmHg 89%
    03:00 +5°C° 0 mm 1 mps 719 mmHg 90%
    04:00 +5°C° 0 mm 1 mps 718 mmHg 91%
    05:00 +6°C° 0 mm 1 mps 718 mmHg 91%
    06:00 +5°C° 0 mm 2 mps 718 mmHg 90%
    07:00 +6°C° 0 mm 2 mps 718 mmHg 90%
    08:00 +8°C° 0.1 mm 2 mps 718 mmHg 86%
    09:00 +9°C° 0.1 mm 2 mps 718 mmHg 82%
    10:00 +10°C° 0.1 mm 3 mps 718 mmHg 78%
    11:00 +10°C° 0.1 mm 3 mps 718 mmHg 78%
    12:00 +11°C° 0.1 mm 3 mps 717 mmHg 78%
    13:00 +11°C° 0.1 mm 4 mps 717 mmHg 78%
    14:00 +11°C° 0.1 mm 3 mps 717 mmHg 78%
    15:00 +11°C° 0.1 mm 3 mps 717 mmHg 79%
    16:00 +11°C° 0.1 mm 3 mps 717 mmHg 79%
    17:00 +12°C° 0 mm 2 mps 717 mmHg 82%
    18:00 +10°C° 0 mm 2 mps 717 mmHg 85%
    19:00 +10°C° 0 mm 1 mps 717 mmHg 88%
    20:00 +10°C° 0 mm 1 mps 717 mmHg 88%
    21:00 +10°C° 0 mm 1 mps 717 mmHg 88%
    22:00 +8°C° 0 mm 0 mps 717 mmHg 88%
    23:00 +8°C° 0 mm 0 mps 717 mmHg 88%

    1 May, Wednesday

    Time Temperature Precipitation Wind Pressure Humidity
    00:00 +9°C° 0 mm 1 mps 717 mmHg 89%
    01:00 +8°C° 0 mm 1 mps 717 mmHg 89%
    02:00 +8°C° 0 mm 1 mps 716 mmHg 90%
    03:00 +8°C° 0 mm 1 mps 716 mmHg 91%
    04:00 +7°C° 0 mm 1 mps 716 mmHg 92%
    05:00 +8°C° 0 mm 1 mps 716 mmHg 90%
    06:00 +9°C° 0 mm 1 mps 716 mmHg 89%
    07:00 +9°C° 0 mm 1 mps 716 mmHg 87%
    08:00 +11°C° 0 mm 1 mps 716 mmHg 82%
    09:00 +12°C° 0 mm 1 mps 715 mmHg 76%
    10:00 +14°C° 0 mm 1 mps 715 mmHg 70%
    11:00 +15°C° 0.2 mm 1 mps 715 mmHg 67%
    12:00 +16°C° 0.2 mm 1 mps 715 mmHg 64%
    13:00 +18°C° 0.2 mm 1 mps 714 mmHg 61%
    14:00 +18°C° 0.3 mm 1 mps 714 mmHg 62%
    15:00 +18°C° 0.3 mm 1 mps 714 mmHg 62%
    16:00 +17°C° 0.3 mm 2 mps 713 mmHg 63%
    17:00 +15°C° 0.6 mm 1 mps 713 mmHg 69%
    18:00 +14°C° 0.6 mm 1 mps 713 mmHg 75%
    19:00 +11°C° 0.6 mm 0 mps 713 mmHg 81%
    20:00 +10°C° 0 mm 0 mps 713 mmHg 83%
    21:00 +9°C° 0 mm 0 mps 713 mmHg 84%
    22:00 +8°C° 0 mm 0 mps 713 mmHg 86%
    23:00 +8°C° 0 mm 1 mps 713 mmHg 87%
    Show more